Weather History for KHLC - September, 2013

Change the Weather History Date:

Thursday, September 19, 2013

  Actual Average Record
Temperature  
Mean Temperature 65 °F 66 °F  
Max Temperature 77 °F 80 °F 101 °F (1980)
Min Temperature 53 °F 52 °F 33 °F (2003)
Cooling Degree Days 1    
Growing Degree Days 16 (Base 50)    
Moisture  
Dew Point 58 °F    
Average Humidity 72    
Maximum Humidity 94    
Minimum Humidity 46    
Precipitation  
Precipitation 0.31 in 0.07 in 0.68 in (1996)
Month to date precipitation 1.50 1.25  
Year to date precipitation 14.44 19.13  
Sea Level Pressure  
Sea Level Pressure 29.85 in    
Wind  
Wind Speed 10 mph (NNW)    
Max Wind Speed 25 mph    
Max Gust Speed 33 mph    
Visibility 9 miles    
Events Rain    
T = Trace of Precipitation, MM = Missing Value Source: NWS Daily Summary

Daily Weather History Graph

Daily Weather History Graph

Search for Another Location

Airport or City:

Trip Planner

Search our weather history database for the weather conditions in past years. The results will help you decide how hot, cold, wet, or windy it might be!

Date:

Astronomy

Sep. 19, 2013 Rise Set
Actual Time 7:24 AM CDT 7:40 PM CDT
Civil Twilight 6:57 AM CDT 8:07 PM CDT
Nautical Twilight 6:26 AM CDT 8:38 PM CDT
Astronomical Twilight 5:54 AM CDT 9:10 PM CDT
Moon 7:40 PM CDT (9/19) 7:35 AM CDT (9/19)
Length of Visible Light 13h 09m
Length of Day
12h 16m
Full, 100% of the Moon is Illuminated
Sep 19
Full
Sep 26
Last Quarter
Oct 4
New
Oct 11
First Quarter
Oct 18
Full

Hourly Weather History & Observations

Time (CDT) Temp. Dew Point Humidity Pressure Visibility Wind Dir Wind Speed Gust Speed Precip Events Conditions
12:53 AM 77.0 °F 60.1 °F 56% 29.67 in 10.0 mi SSW 15.0 mph 23.0 mph N/A   Clear
1:53 AM 77.0 °F 61.0 °F 58% 29.67 in 10.0 mi SSW 11.5 mph 21.9 mph N/A   Clear
2:53 AM 75.0 °F 61.0 °F 62% 29.68 in 10.0 mi SW 5.8 mph - N/A   Clear
3:53 AM 69.1 °F 62.1 °F 78% 29.69 in 10.0 mi Calm Calm - N/A   Clear
4:53 AM 66.9 °F 62.1 °F 84% 29.68 in 10.0 mi Calm Calm - N/A   Partly Cloudy
5:49 AM 66.2 °F 64.4 °F 94% 29.77 in 1.8 mi SW 9.2 mph - 0.16 in Rain Heavy Rain
5:53 AM 66.9 °F 64.0 °F 90% 29.70 in 2.0 mi WSW 6.9 mph - 0.19 in Rain Rain
6:10 AM 66.2 °F 64.4 °F 94% 29.77 in 5.0 mi Calm Calm - 0.06 in Rain Light Rain
6:53 AM 64.9 °F 62.1 °F 90% 29.69 in 10.0 mi NNE 5.8 mph - 0.10 in   Partly Cloudy
7:53 AM 64.9 °F 62.1 °F 90% 29.75 in 10.0 mi NW 4.6 mph - 0.01 in   Mostly Cloudy
8:53 AM 64.9 °F 61.0 °F 87% 29.79 in 10.0 mi NNW 10.4 mph - N/A   Clear
9:53 AM 66.9 °F 62.1 °F 84% 29.83 in 10.0 mi NW 5.8 mph - 0.00 in Rain Light Rain
10:53 AM 69.1 °F 62.1 °F 78% 29.84 in 10.0 mi NNW 13.8 mph - 0.00 in   Scattered Clouds
11:53 AM 69.1 °F 62.1 °F 78% 29.88 in 10.0 mi NNW 12.7 mph 20.7 mph N/A   Clear
12:53 PM 66.9 °F 59.0 °F 76% 29.91 in 10.0 mi NNW 18.4 mph 26.5 mph 0.00 in Rain Light Rain
1:53 PM 71.1 °F 55.0 °F 57% 29.89 in 10.0 mi North 25.3 mph 33.4 mph 0.01 in   Clear
2:53 PM 73.9 °F 53.1 °F 48% 29.88 in 10.0 mi North 18.4 mph 31.1 mph N/A   Clear
3:53 PM 73.0 °F 52.0 °F 48% 29.91 in 10.0 mi NNE 15.0 mph 20.7 mph N/A   Scattered Clouds
4:53 PM 73.9 °F 52.0 °F 46% 29.91 in 10.0 mi NNE 15.0 mph 21.9 mph N/A   Mostly Cloudy
5:53 PM 73.0 °F 51.1 °F 46% 29.91 in 10.0 mi North 15.0 mph 20.7 mph N/A   Clear
6:53 PM 70.0 °F 50.0 °F 49% 29.94 in 10.0 mi NNE 8.1 mph - N/A   Scattered Clouds
7:53 PM 66.9 °F 50.0 °F 54% 29.98 in 10.0 mi NNE 9.2 mph - N/A   Mostly Cloudy
8:53 PM 62.1 °F 53.1 °F 72% 30.03 in 10.0 mi North 9.2 mph - N/A   Clear
9:53 PM 60.1 °F 53.1 °F 78% 30.07 in 10.0 mi North 9.2 mph - N/A   Clear
10:53 PM 55.9 °F 53.1 °F 90% 30.09 in 10.0 mi Calm Calm - N/A   Clear
11:53 PM 55.0 °F 53.1 °F 93% 30.10 in 10.0 mi Calm Calm - N/A   Clear